This is the latest recevied weather packets stored in our database for station/object DL5DI-H. If no packets are shown the sender has not sent any weather packets the latest 10 day(s).
| Time | Temp. | Humidity | Pressure | Rain* | Wind** | Luminosity | Snow |
|---|---|---|---|---|---|---|---|
| 1788077402 | 20° C | 74% | 1014.4 hPa | 0 mm | - | - | - |
| 1788076801 | 19.44° C | 79% | 1014.3 hPa | 0 mm | - | - | - |
| 1788076200 | 19.44° C | 79% | 1014.3 hPa | 0 mm | - | - | - |
| 1788075602 | 18.89° C | 82% | 1014.1 hPa | 0 mm | - | - | - |
| 1788075000 | 18.89° C | 82% | 1014 hPa | 0 mm | - | - | - |
| 1788074401 | 18.89° C | 82% | 1014 hPa | 0 mm | - | - | - |
| 1788073818 | 18.33° C | 84% | 1013.8 hPa | 0 mm | - | - | - |
| 1788073201 | 18.33° C | 85% | 1013.7 hPa | 0 mm | - | - | - |
| 1788072602 | 18.33° C | 85% | 1013.7 hPa | 0 mm | - | - | - |
| 1788072000 | 18.33° C | 87% | 1013.7 hPa | 0 mm | - | - | - |
| 1788071401 | 17.78° C | 88% | 1013.5 hPa | 0 mm | - | - | - |
| 1788070802 | 17.78° C | 88% | 1013.5 hPa | 0 mm | - | - | - |
| 1788070200 | 17.78° C | 88% | 1013.4 hPa | 0 mm | - | - | - |
| 1788069602 | 17.78° C | 89% | 1013.3 hPa | 0 mm | - | - | - |
| 1788069001 | 17.78° C | 89% | 1013.2 hPa | 0 mm | - | - | - |
| 1788068402 | 17.78° C | 89% | 1013.1 hPa | 0 mm | - | - | - |
| 1788067800 | 17.78° C | 89% | 1012.8 hPa | 0 mm | - | - | - |
| 1788067202 | 17.78° C | 89% | 1012.8 hPa | 0 mm | - | - | - |
| 1788066602 | 17.78° C | 89% | 1012.7 hPa | 0 mm | - | - | - |
| 1788066001 | 17.78° C | 89% | 1012.6 hPa | 0 mm | - | - | - |
| 1788065401 | 18.33° C | 90% | 1012.5 hPa | 0 mm | - | - | - |
| 1788064801 | 18.33° C | 90% | 1012.4 hPa | 0 mm | - | - | - |
| 1788064218 | 18.33° C | 90% | 1012.4 hPa | 0.51 mm | - | - | - |
| 1788063600 | 18.33° C | 90% | 1012.4 hPa | 1.27 mm | - | - | - |
| 1788063002 | 18.33° C | 90% | 1012.5 hPa | 2.03 mm | - | - | - |
* Rain latest hour (hover to see other rain measurements)
** Current wind speed in m/s (hover to see current wind gust speed)